Regional Weather Roundup
Issued by NWS

Home | Current Version | Previous Version | Text Only | Print | Product List | Glossary On
Versions: 1 2 3 4 5 6 7 8 9 10 11 12 13 14 15 16 17 18 19 20 21 22 23 24 25 26 27 28 29 30 31 32 33 34 35 36 37 38 39 40 41 42 43 44 45 46 47 48 49 50
493
ASUS43 KMPX 271910
RWRMN
WEATHER ROUNDUP FOR MINNESOTA
NATIONAL WEATHER SERVICE TWIN CITIES/CHANHASSEN MN
200 PM CDT MON MAR 27 2017


NOTE: "FAIR" INDICATES FEW OR NO CLOUDS BELOW 12,000 FEET WITH NO
SIGNIFICANT WEATHER AND/OR OBSTRUCTIONS TO VISIBILITY. N/A MEANS
CURRENT SKY AND/OR WEATHER CONDITIONS ARE NOT AVAILABLE.

MNZ060>063-068>070-272000-
   Twin Cities Metro

CITY           SKY/WX    TMP DP  RH WIND       PRES   REMARKS
TWIN CITIES    MOSUNNY   55  33  43 VRB5      29.96F
ST PAUL        CLOUDY    54  35  48 VRB3      29.97S
CRYSTAL        MOSUNNY   56  31  38 N7        29.95F
BLAINE         MOSUNNY   57  34  41 N7        29.95F
LAKEVILLE      SUNNY     52  37  58 E7        29.96S
EDEN PRAIRIE   SUNNY     56  35  45 E7        29.95F
SOUTH ST PAUL  MOSUNNY   54  34  46 N8        29.96F
LAKE ELMO      CLOUDY    52  37  58 E5        29.97F
$$
MNZ001>005-007-008-013>017-022>024-027-028-272000-
   Northwest Minnesota

CITY           SKY/WX    TMP DP  RH WIND       PRES   REMARKS
BEMIDJI        SUNNY     53  34  49 E5        29.97F
HALLOCK        CLOUDY    36  36 100 CALM      30.02F FOG
ROSEAU         SUNNY     50  39  66 SE6       29.98F
WARROAD        CLOUDY    46  37  71 E6        30.00F
THIEF RVR FALL   N/A    N/A N/A N/A VRB3      30.00F
CROOKSTON      CLOUDY    41  41 100 CALM      30.01S
FOSSTON        SUNNY     54  52  94 CALM      29.98F
DETROIT LAKES  SUNNY     54  36  50 NW5       29.97F
MOORHEAD       MOSUNNY   52  43  71 CALM      29.98F
PARK RAPIDS    SUNNY     54  34  46 CALM      29.95F
MAHNOMEN       FAIR      51  41  68 N3        29.97F
$$
MNZ006-009>011-018-025>026-272000-
   North Central Minnesota

CITY           SKY/WX    TMP DP  RH WIND       PRES   REMARKS
BAUDETTE       SUNNY     50  34  54 VRB3      29.99S
FLAG ISLAND    MOSUNNY   39  30  70 SE8       30.00F
INTL FALLS     SUNNY     52  31  44 CALM      29.98F
WASKISH        MOSUNNY   48  37  66 W8        29.99S
BIG FORK       SUNNY     54  32  43 CALM      29.98S
LONGVILLE      SUNNY     54  32  43 NE3       29.97S
GRAND RAPIDS   SUNNY     50  34  54 NW3       29.99S
CRANE LAKE     SUNNY     48  30  49 CALM      29.99F
ORR            SUNNY     52  28  40 CALM      29.95F
COOK           SUNNY     50  30  46 NE5       29.98S
WALKER         FAIR      48  33  57 E6        29.98S
$$
MNZ012-019>021-037-272000-
   Northeast Minnesota

CITY           SKY/WX    TMP DP  RH WIND       PRES   REMARKS
DULUTH         CLOUDY    48  35  60 N7        29.97R
ELY            MOSUNNY   46  27  46 N5        29.97F
HIBBING        SUNNY     50  34  54 CALM      29.96F
EVELETH        CLOUDY    51  30  43 CALM      29.98S
DULUTH HARBOR  CLOUDY    45  36  70 CALM      30.00R
TWO HARBORS    CLOUDY    50  39  66 SE3       29.96S
SILVER BAY     CLOUDY    46  37  71 SE3       29.96S
GRAND MARAIS     N/A     40  35  83 W5        29.99R
G MARAIS ARPRT CLOUDY    45  28  53 CALM      29.96S
$$
MNZ029>031-032-039>041-046>048-054>057-064-272000-
   West Central Minnesota

CITY           SKY/WX    TMP DP  RH WIND       PRES   REMARKS
FERGUS FALLS   SUNNY     54  37  54 SW7       29.99F
WHEATON        MOSUNNY   54  37  54 E3        29.99F
MORRIS         SUNNY     55  36  47 CALM      29.96F
ALEXANDRIA     SUNNY     52  34  50 VRB3      29.97F
ELBOW LAKE     FAIR      52  37  55 E5        29.97F
WADENA         SUNNY     54  36  50 SE3       29.96F
GLENWOOD       MOSUNNY   52  34  50 CALM      29.97F
APPLETON       SUNNY     54  37  54 CALM      29.97F
BENSON         SUNNY     55  30  38 N5        29.98F
ORTONVILLE     MOSUNNY   52  37  58 CALM      29.97F
MADISON        MOSUNNY   55  41  58 CALM      29.98S
WILLMAR        FAIR      55  36  47 NE5       29.97F
$$
MNZ033>034-036-042>043-049>051-058-059-272000-
   Central Minnesota

CITY           SKY/WX    TMP DP  RH WIND       PRES   REMARKS
ST CLOUD       PTSUNNY   53  37  54 VRB3      29.97F
SAUK CENTRE    FAIR      51  33  50 NE3       29.97F
PAYNESVILLE      N/A     52  34  51 CALM      29.97F
AITKIN         CLOUDY    54  32  43 NE3       29.96S
PINE RIVER     SUNNY     54  37  54 NW3       30.00S
BRAINERD       MOSUNNY   52  33  48 VRB6      29.97F
STAPLES        PTSUNNY   54  32  43 CALM      29.96F
LONG PRAIRIE   FAIR      52  34  50 CALM      29.97F
LITTLE FALLS   CLOUDY    52  32  46 NE3       29.97F
LITCHFIELD     SUNNY     54  37  54 CALM      29.97F
BUFFALO        PTSUNNY   55  36  48 NW8       29.98S
MAPLE LAKE     CLOUDY    54  38  54 NW7       29.98S
HUTCHINSON     MOSUNNY   54  38  55 NE7       29.97F
$$
MNZ037-044-045-052-053-272000-
   East Central Minnesota

CITY           SKY/WX    TMP DP  RH WIND       PRES   REMARKS
PRINCETON      MOSUNNY   54  37  54 N7        29.97F
MORA           CLOUDY    50  36  57 CALM      29.99S
CAMBRIDGE      CLOUDY    52  37  58 NW3       29.95F
RUSH CITY      CLOUDY    51  36  56 N7        29.96F
MOOSE LAKE     CLOUDY    46  34  61 CALM      29.96S
CLOQUET        CLOUDY    48  34  57 N5        29.97S
MCGREGOR       CLOUDY    50  36  57 N5        29.98S
$$
MNZ071>073-080-081-089-090-097-098-272000-
   Southwest Minnesota

CITY           SKY/WX    TMP DP  RH WIND       PRES   REMARKS
MONTEVIDEO     SUNNY     57  39  51 NE3       29.99S
GRANITE FALLS  MOSUNNY   56  39  53 N7        29.98F
CANBY          PTSUNNY   53  39  59 CALM      29.98F
MARSHALL       MOSUNNY   51  37  58 VRB3      29.97F
REDWOOD FALLS  SUNNY     55  37  50 SE6       29.96F
OLIVIA         SUNNY     54  36  50 NE7       29.96F
PIPESTONE      MOSUNNY   52  34  50 CALM      29.96S
WINDOM         MOSUNNY   48  37  66 N5        29.97F
WORTHINGTON    CLOUDY    47  37  68 N6        29.98F
JACKSON        CLOUDY    45  37  76 N7        29.98S
TRACY          MOSUNNY   52  39  61 NE3       29.97S
SLAYTON        MOSUNNY   48  37  67 NW5       29.98S
$$
MNZ065>067-074>077-082>085-091>093-272000-
   South Central Minnesota

CITY           SKY/WX    TMP DP  RH WIND       PRES   REMARKS
MANKATO        CLOUDY    49  38  65 N5        29.98S
NEW ULM        MOSUNNY   52  37  58 NE6       29.97F
ST JAMES       CLOUDY    50  39  66 CALM      29.99S
FAIRMONT       CLOUDY    47  40  76 NE8       29.98S
GLENCOE        MOSUNNY   54  40  59 N7        29.96F
FARIBAULT      CLOUDY    48  39  71 NE5       29.97S
OWATONNA       PTSUNNY   46  37  71 N6        29.97S
WASECA         CLOUDY    46  37  71 NE8       29.98S
ALBERT LEA     CLOUDY    45  39  81 N7        29.96S
$$
MNZ078>079-086>088-094>096-272000-
   Southeast Minnesota

CITY           SKY/WX    TMP DP  RH WIND       PRES   REMARKS
ROCHESTER      CLOUDY    43  39  86 VRB3      29.96S
RED WING       CLOUDY    48  37  66 NE7       29.97S
STANTON        CLOUDY    48  38  68 NE3       29.96S
DODGE CENTER   CLOUDY    43  39  87 N7        29.96S
WINONA         CLOUDY    43  37  81 N3        29.98R
AUSTIN         CLOUDY    45  39  81 N5        29.95F
PRESTON        CLOUDY    43  38  82 N5        29.96S
$$
ABBREVIATIONS USED IN REMARKS
   TC - TEMPERATURES IN CELSIUS
  WCI - WIND CHILL INDEX
   HX - HEAT INDEX
  VSB - VISIBILITY
$$




USA.gov is the U.S. government's official web portal to all federal, state and local government web resources and services.